Location: Chiroubles
(46.1812°N, 4.6660°E)
Time: 16:14:16
(UTC+00:00)

Courier 1B - Visible Passes

Search period start: 01 August 2021 00:00
Search period end: 11 August 2021 00:00
Orbit: 962 x 1209 km, 28.3° (Epoch: 01 August)

Date Brightness Start Highest point End Pass type
(mag) Time Alt. Az. Time Alt. Az. Time Alt. Az.
01 Aug 9.2 20:36:59 10° SW 20:42:09 19° S 20:44:56 16° SSE visible
01 Aug 9.8 22:31:35 10° SW 22:31:49 10° SW 22:31:49 10° SW visible
02 Aug 9.3 19:43:16 10° SW 19:48:32 20° S 19:53:43 10° SE visible
02 Aug 9.4 21:37:09 10° SW 21:41:11 16° SSW 21:41:11 16° SSW visible
03 Aug 9.3 20:43:01 10° SW 20:47:55 18° S 20:50:31 15° SSE visible
04 Aug 9.4 19:49:05 10° SW 19:54:19 19° S 19:59:28 10° SE visible
04 Aug 9.6 21:44:17 10° SW 21:46:44 12° SSW 21:46:44 12° SSW visible
05 Aug 9.5 20:49:35 10° SW 20:53:39 15° SSW 20:56:03 13° S visible
06 Aug 9.5 19:55:20 10° SW 20:00:04 17° SSW 20:04:46 10° SSE visible
07 Aug 9.8 20:57:35 10° SW 20:59:19 11° SSW 21:01:04 10° S visible
08 Aug 9.7 20:02:17 10° SW 20:05:46 13° SSW 20:09:15 10° S visible
